,,,PA_Meas_PMT16A,,PR_Meas_QMR101_102,,RH_Meas_QMH101,,SR_Meas_QMS101,,TA_Meas_QMH101,,GenWind,,GenWind,
date,time,status,PA,status,PR,status,RH,status,SR,status,TA,status,DirAvg,status,SpdAvg,
2008-12-04, 00:00:04,VALID,1008.42,VALID,0,VALID,95.7566,VALID,0,VALID,24.1209,VALID,310,VALID,0,
2008-12-04, 00:01:04,VALID,1008.44,VALID,0,VALID,95.7718,VALID,0,VALID,24.1227,VALID,310,VALID,0,
2008-12-04, 00:02:04,VALID,1008.42,VALID,0,VALID,95.7566,VALID,0,VALID,24.1014,VALID,310,VALID,0,
2008-12-04, 00:03:04,VALID,1008.41,VALID,0,VALID,95.7642,VALID,0,VALID,24.1209,VALID,310,VALID,0,
2008-12-04, 00:04:04,VALID,1008.38,VALID,0,VALID,95.7566,VALID,0,VALID,24.1014,VALID,310,VALID,0,
2008-12-04, 00:05:04,VALID,1008.35,VALID,0,VALID,95.749,VALID,0,VALID,24.1014,VALID,310,VALID,0,
2008-12-04, 00:06:04,VALID,1008.3,VALID,0,VALID,95.7642,VALID,0,VALID,24.1422,VALID,310,VALID,0,
2008-12-04, 00:07:04,VALID,1008.26,VALID,0,VALID,95.7718,VALID,0,VALID,24.1209,VALID,310,VALID,0,
2008-12-04, 00:08:04,VALID,1008.28,VALID,0,VALID,95.7642,VALID,0,VALID,24.1209,VALID,310,VALID,0,
2008-12-04, 00:09:04,VALID,1008.24,VALID,0,VALID,95.7642,VALID,0,VALID,24.1422,VALID,310,VALID,0,
2008-12-04, 00:10:04,VALID,1008.24,VALID,0,VALID,95.7871,VALID,0,VALID,24.1209,VALID,310,VALID,0,
2008-12-04, 00:11:04,VALID,1008.23,VALID,0,VALID,95.7795,VALID,0,VALID,24.1014,VALID,310,VALID,0,
2008-12-04, 00:12:04,VALID,1008.23,VALID,0,VALID,95.7642,VALID,0,VALID,24.1227,VALID,310,VALID,0,
2008-12-04, 00:13:04,VALID,1008.19,VALID,0,VALID,95.7795,VALID,0,VALID,24.1227,VALID,310,VALID,0,
2008-12-04, 00:14:04,VALID,1008.19,VALID,0,VALID,95.7871,VALID,0,VALID,24.1014,VALID,310,VALID,0,
2008-12-04, 00:15:04,VALID,1008.19,VALID,0,VALID,95.8023,VALID,0,VALID,24.1014,VALID,310,VALID,0,
2008-12-04, 00:16:04,VALID,1008.19,VALID,0,VALID,95.7947,VALID,0,VALID,24.1014,VALID,310,VALID,0,
2008-12-04, 00:17:04,VALID,1008.21,VALID,0,VALID,95.7947,VALID,0.105969,VALID,24.1014,VALID,310,VALID,0,
2008-12-04, 00:18:04,VALID,1008.18,VALID,0,VALID,95.7795,VALID,0,VALID,24.1209,VALID,310,VALID,0,
2008-12-04, 00:19:04,VALID,1008.17,VALID,0,VALID,95.81,VALID,0,VALID,24.1422,VALID,310,VALID,0,
2008-12-04, 00:20:04,VALID,1008.18,VALID,0,VALID,95.7947,VALID,0,VALID,24.1404,VALID,310,VALID,0,
2008-12-04, 00:21:04,VALID,1008.16,VALID,0,VALID,95.81,VALID,0,VALID,24.1404,VALID,310,VALID,0,
2008-12-04, 00:22:04,VALID,1008.15,VALID,0,VALID,95.8176,VALID,0,VALID,24.1404,VALID,310,VALID,0,
2008-12-04, 00:23:04,VALID,1008.13,VALID,0,VALID,95.81,VALID,0,VALID,24.1404,VALID,310,VALID,0,
2008-12-04, 00:24:04,VALID,1008.12,VALID,0,VALID,95.8176,VALID,0,VALID,24.1227,VALID,310,VALID,0,
2008-12-04, 00:25:04,VALID,1008.11,VALID,0,VALID,95.81,VALID,0,VALID,24.0819,VALID,310,VALID,0,
2008-12-04, 00:26:04,VALID,1008.11,VALID,0,VALID,95.81,VALID,0,VALID,24.0819,VALID,310,VALID,0,
2008-12-04, 00:27:04,VALID,1008.12,VALID,0,VALID,95.81,VALID,0,VALID,24.0837,VALID,310,VALID,0,
2008-12-04, 00:28:04,VALID,1008.07,VALID,0,VALID,95.81,VALID,0,VALID,24.0643,VALID,310,VALID,0,
2008-12-04, 00:29:04,VALID,1008.04,VALID,0,VALID,95.8176,VALID,0,VALID,24.0235,VALID,310,VALID,0,
2008-12-04, 00:30:04,VALID,1008.01,VALID,0,VALID,95.8328,VALID,0,VALID,24.0448,VALID,346,VALID,0,
2008-12-04, 00:31:04,VALID,1007.97,VALID,0,VALID,95.8328,VALID,0,VALID,24.0429,VALID,64,VALID,0.477344,
2008-12-04, 00:32:04,VALID,1007.99,VALID,0,VALID,95.8176,VALID,0,VALID,24.0448,VALID,66,VALID,0.512891,
2008-12-04, 00:33:04,VALID,1007.96,VALID,0,VALID,95.8252,VALID,0,VALID,24.0429,VALID,66,VALID,0.555859,
2008-12-04, 00:34:04,VALID,1007.96,VALID,0,VALID,95.8328,VALID,0,VALID,24.0624,VALID,66,VALID,0.430859,
2008-12-04, 00:35:04,VALID,1007.97,VALID,0,VALID,95.8481,VALID,0,VALID,24.1032,VALID,66,VALID,0.319531,
2008-12-04, 00:36:04,VALID,1007.98,VALID,0,VALID,95.8328,VALID,0,VALID,24.1422,VALID,66,VALID,0.4125,
2008-12-04, 00:37:04,VALID,1008.02,VALID,0,VALID,95.8481,VALID,0,VALID,24.1599,VALID,66,VALID,0.238672,
2008-12-04, 00:38:04,VALID,1008.01,VALID,0,VALID,95.8252,VALID,0,VALID,24.1599,VALID,66,VALID,0.160156,
2008-12-04, 00:39:04,VALID,1007.98,VALID,0,VALID,95.8176,VALID,0,VALID,24.1617,VALID,66,VALID,0.192188,
2008-12-04, 00:40:04,VALID,1008,VALID,0,VALID,95.8252,VALID,0,VALID,24.1617,VALID,66,VALID,0,
2008-12-04, 00:41:04,VALID,1008,VALID,0,VALID,95.8328,VALID,0,VALID,24.1404,VALID,66,VALID,0.0015625,
2008-12-04, 00:42:04,VALID,1007.97,VALID,0,VALID,95.8405,VALID,0,VALID,24.1617,VALID,66,VALID,0.00234375,
2008-12-04, 00:43:04,VALID,1007.97,VALID,0,VALID,95.8405,VALID,0,VALID,24.1422,VALID,66,VALID,0.474609,
2008-12-04, 00:44:04,VALID,1007.94,VALID,0,VALID,95.8328,VALID,0,VALID,24.1227,VALID,66,VALID,0.247656,
2008-12-04, 00:45:04,VALID,1007.92,VALID,0,VALID,95.8328,VALID,0,VALID,24.1032,VALID,66,VALID,0,
2008-12-04, 00:46:04,VALID,1007.92,VALID,0,VALID,95.8557,VALID,0,VALID,24.0643,VALID,66,VALID,0.183984,
2008-12-04, 00:47:04,VALID,1007.89,VALID,0,VALID,95.8328,VALID,0,VALID,24.0643,VALID,66,VALID,0.389453,
2008-12-04, 00:48:04,VALID,1007.89,VALID,0,VALID,95.8557,VALID,0,VALID,24.0448,VALID,66,VALID,0.298828,
2008-12-04, 00:49:04,VALID,1007.87,VALID,0,VALID,95.8633,VALID,0,VALID,24.0235,VALID,66,VALID,0.294531,
2008-12-04, 00:50:04,VALID,1007.88,VALID,0,VALID,95.8405,VALID,0,VALID,24.0253,VALID,66,VALID,0.393359,
2008-12-04, 00:51:04,VALID,1007.87,VALID,0,VALID,95.8786,VALID,0,VALID,24.004,VALID,66,VALID,0.0046875,
2008-12-04, 00:52:04,VALID,1007.88,VALID,0,VALID,95.8633,VALID,0,VALID,24.0058,VALID,66,VALID,0,
2008-12-04, 00:53:04,VALID,1007.85,VALID,0,VALID,95.871,VALID,0,VALID,23.9845,VALID,66,VALID,0,
2008-12-04, 00:54:04,VALID,1007.87,VALID,0,VALID,95.8633,VALID,0,VALID,24.004,VALID,66,VALID,0,
2008-12-04, 00:55:04,VALID,1007.89,VALID,0,VALID,95.871,VALID,0,VALID,24.0058,VALID,66,VALID,0,
2008-12-04, 00:56:04,VALID,1007.88,VALID,0,VALID,95.8862,VALID,0,VALID,23.9845,VALID,66,VALID,0,
2008-12-04, 00:57:04,VALID,1007.87,VALID,0,VALID,95.8786,VALID,0,VALID,24.004,VALID,66,VALID,0,
2008-12-04, 00:58:04,VALID,1007.87,VALID,0,VALID,95.871,VALID,0,VALID,23.9845,VALID,66,VALID,0,
2008-12-04, 00:59:04,VALID,1007.82,VALID,0,VALID,95.8862,VALID,0,VALID,23.9668,VALID,66,VALID,0,
2008-12-04, 01:00:04,VALID,1007.78,VALID,0,VALID,95.8786,VALID,0,VALID,23.9455,VALID,66,VALID,0,
2008-12-04, 01:01:04,VALID,1007.74,VALID,0,VALID,95.8786,VALID,0,VALID,23.9455,VALID,66,VALID,0.114063,
2008-12-04, 01:02:04,VALID,1007.71,VALID,0,VALID,95.9091,VALID,0,VALID,23.9455,VALID,66,VALID,0.075,
2008-12-04, 01:03:04,VALID,1007.69,VALID,0,VALID,95.8786,VALID,0,VALID,23.926,VALID,66,VALID,0.104297,
2008-12-04, 01:04:04,VALID,1007.65,VALID,0,VALID,95.8786,VALID,0,VALID,23.926,VALID,66,VALID,0.222266,
2008-12-04, 01:05:04,VALID,1007.64,VALID,0,VALID,95.8939,VALID,0,VALID,23.926,VALID,66,VALID,0.264062,
2008-12-04, 01:06:04,VALID,1007.63,VALID,0,VALID,95.8939,VALID,0,VALID,23.926,VALID,66,VALID,0.0492188,
2008-12-04, 01:07:04,VALID,1007.63,VALID,0,VALID,95.9015,VALID,0,VALID,23.926,VALID,66,VALID,0.00429688,
2008-12-04, 01:08:04,VALID,1007.6,VALID,0,VALID,95.8862,VALID,0.105969,VALID,23.9065,VALID,66,VALID,0,
2008-12-04, 01:09:04,VALID,1007.58,VALID,0,VALID,95.9015,VALID,0,VALID,23.9065,VALID,66,VALID,0,
2008-12-04, 01:10:04,VALID,1007.59,VALID,0,VALID,95.8786,VALID,0,VALID,23.8871,VALID,66,VALID,0,
2008-12-04, 01:11:04,VALID,1007.58,VALID,0,VALID,95.8862,VALID,0,VALID,23.8676,VALID,66,VALID,0,
2008-12-04, 01:12:04,VALID,1007.61,VALID,0,VALID,95.9015,VALID,0,VALID,23.8676,VALID,66,VALID,0,
2008-12-04, 01:13:04,VALID,1007.64,VALID,0,VALID,95.9015,VALID,0,VALID,23.8481,VALID,66,VALID,0,
2008-12-04, 01:14:04,VALID,1007.63,VALID,0,VALID,95.9167,VALID,0.105969,VALID,23.8481,VALID,66,VALID,0,
2008-12-04, 01:15:04,VALID,1007.62,VALID,0,VALID,95.9091,VALID,0,VALID,23.8481,VALID,66,VALID,0,
2008-12-04, 01:16:04,VALID,1007.63,VALID,0,VALID,95.9167,VALID,0,VALID,23.8694,VALID,66,VALID,0.0191406,
2008-12-04, 01:17:04,VALID,1007.63,VALID,0,VALID,95.8939,VALID,0,VALID,23.8676,VALID,180,VALID,0.655469,
2008-12-04, 01:18:04,VALID,1007.66,VALID,0,VALID,95.9015,VALID,0,VALID,23.9084,VALID,184,VALID,0.556641,
2008-12-04, 01:19:04,VALID,1007.67,VALID,0,VALID,95.9396,VALID,0.105969,VALID,23.8871,VALID,184,VALID,0.219141,
2008-12-04, 01:20:04,VALID,1007.69,VALID,0,VALID,95.9091,VALID,0,VALID,23.8871,VALID,184,VALID,0.260156,
2008-12-04, 01:21:04,VALID,1007.74,VALID,0,VALID,95.9091,VALID,0,VALID,23.9065,VALID,184,VALID,0.270312,
2008-12-04, 01:22:04,VALID,1007.75,VALID,0,VALID,95.9167,VALID,0,VALID,23.9668,VALID,184,VALID,0.378516,
2008-12-04, 01:23:04,VALID,1007.76,VALID,0,VALID,95.9244,VALID,0,VALID,23.965,VALID,186,VALID,0.346875,
2008-12-04, 01:24:04,VALID,1007.78,VALID,0,VALID,95.9015,VALID,0,VALID,23.9668,VALID,186,VALID,0.251172,
2008-12-04, 01:25:04,VALID,1007.78,VALID,0,VALID,95.9091,VALID,0,VALID,23.9455,VALID,186,VALID,0.329297,
2008-12-04, 01:26:04,VALID,1007.77,VALID,0,VALID,95.9244,VALID,0,VALID,23.926,VALID,186,VALID,0.219531,
2008-12-04, 01:27:04,VALID,1007.79,VALID,0,VALID,95.9091,VALID,0,VALID,23.9065,VALID,186,VALID,0.280469,
2008-12-04, 01:28:04,VALID,1007.8,VALID,0,VALID,95.932,VALID,0,VALID,23.926,VALID,186,VALID,0.142578,
2008-12-04, 01:29:04,VALID,1007.79,VALID,0,VALID,95.9167,VALID,0,VALID,23.9473,VALID,186,VALID,0.108203,
2008-12-04, 01:30:04,VALID,1007.75,VALID,0,VALID,95.9167,VALID,0.105969,VALID,23.926,VALID,186,VALID,0.201172,
2008-12-04, 01:31:04,VALID,1007.73,VALID,0,VALID,95.9167,VALID,0,VALID,23.9065,VALID,186,VALID,0.231641,
2008-12-04, 01:32:04,VALID,1007.76,VALID,0,VALID,95.9167,VALID,0,VALID,23.8676,VALID,186,VALID,0.241797,
2008-12-04, 01:33:04,VALID,1007.72,VALID,0,VALID,95.9244,VALID,0,VALID,23.8499,VALID,186,VALID,0.300781,
2008-12-04, 01:34:04,VALID,1007.73,VALID,0,VALID,95.9244,VALID,0.105969,VALID,23.8091,VALID,186,VALID,0,
2008-12-04, 01:35:04,VALID,1007.74,VALID,0,VALID,95.932,VALID,0,VALID,23.8304,VALID,186,VALID,0,
2008-12-04, 01:36:04,VALID,1007.7,VALID,0,VALID,95.9396,VALID,0.105969,VALID,23.8091,VALID,186,VALID,0.0046875,
2008-12-04, 01:37:04,VALID,1007.69,VALID,0,VALID,95.9472,VALID,0,VALID,23.8109,VALID,186,VALID,0.367969,
2008-12-04, 01:38:04,VALID,1007.66,VALID,0,VALID,95.9167,VALID,0.105969,VALID,23.7896,VALID,169,VALID,0.491016,
2008-12-04, 01:39:04,VALID,1007.68,VALID,0,VALID,95.9396,VALID,0.105969,VALID,23.7896,VALID,169,VALID,0.330859,
2008-12-04, 01:40:04,VALID,1007.65,VALID,0,VALID,95.9549,VALID,0,VALID,23.8091,VALID,169,VALID,0.0535156,
2008-12-04, 01:41:04,VALID,1007.64,VALID,0,VALID,95.9625,VALID,0,VALID,23.8091,VALID,169,VALID,0,
2008-12-04, 01:42:04,VALID,1007.62,VALID,0,VALID,95.932,VALID,0,VALID,23.8499,VALID,169,VALID,0,
2008-12-04, 01:43:04,VALID,1007.61,VALID,0,VALID,95.9472,VALID,0,VALID,23.8091,VALID,169,VALID,0,
2008-12-04, 01:44:04,VALID,1007.58,VALID,0,VALID,95.9472,VALID,0,VALID,23.8304,VALID,169,VALID,0,
2008-12-04, 01:45:04,VALID,1007.6,VALID,0,VALID,95.9472,VALID,0,VALID,23.8286,VALID,169,VALID,0,
2008-12-04, 01:46:04,VALID,1007.57,VALID,0,VALID,95.9549,VALID,0,VALID,23.8481,VALID,169,VALID,0,
2008-12-04, 01:47:04,VALID,1007.59,VALID,0,VALID,95.9549,VALID,0,VALID,23.8676,VALID,169,VALID,0,
2008-12-04, 01:48:04,VALID,1007.6,VALID,0,VALID,95.9472,VALID,0,VALID,23.8676,VALID,169,VALID,0,
2008-12-04, 01:49:04,VALID,1007.6,VALID,0,VALID,95.932,VALID,0,VALID,23.8871,VALID,169,VALID,0,
2008-12-04, 01:50:04,VALID,1007.59,VALID,0,VALID,95.9396,VALID,0,VALID,23.8871,VALID,169,VALID,0,
2008-12-04, 01:51:04,VALID,1007.56,VALID,0,VALID,95.9396,VALID,0,VALID,23.9084,VALID,169,VALID,0.0476562,
2008-12-04, 01:52:04,VALID,1007.53,VALID,0,VALID,95.9472,VALID,0,VALID,23.8871,VALID,169,VALID,0,
2008-12-04, 01:53:04,VALID,1007.49,VALID,0,VALID,95.9472,VALID,0,VALID,23.9065,VALID,169,VALID,0,
2008-12-04, 01:54:04,VALID,1007.48,VALID,0,VALID,95.9549,VALID,0,VALID,23.9065,VALID,169,VALID,0,
2008-12-04, 01:55:04,VALID,1007.46,VALID,0,VALID,95.9701,VALID,0,VALID,23.8871,VALID,169,VALID,0.0210938,
2008-12-04, 01:56:04,VALID,1007.46,VALID,0,VALID,95.9549,VALID,0,VALID,23.9065,VALID,169,VALID,0,
2008-12-04, 01:57:04,VALID,1007.43,VALID,0,VALID,95.9472,VALID,0.105969,VALID,23.9065,VALID,169,VALID,0,
2008-12-04, 01:58:04,VALID,1007.46,VALID,0,VALID,95.9396,VALID,0,VALID,23.9065,VALID,169,VALID,0,
2008-12-04, 01:59:04,VALID,1007.44,VALID,0,VALID,95.9472,VALID,0,VALID,23.9065,VALID,169,VALID,0,
2008-12-04, 02:00:04,VALID,1007.44,VALID,0,VALID,95.9396,VALID,0,VALID,23.9278,VALID,169,VALID,0,
2008-12-04, 02:01:04,VALID,1007.44,VALID,0,VALID,95.932,VALID,0,VALID,23.9065,VALID,169,VALID,0,
2008-12-04, 02:02:04,VALID,1007.45,VALID,0,VALID,95.9625,VALID,0,VALID,23.8871,VALID,169,VALID,0,
2008-12-04, 02:03:04,VALID,1007.44,VALID,0,VALID,95.932,VALID,0,VALID,23.9084,VALID,169,VALID,0,
2008-12-04, 02:04:04,VALID,1007.43,VALID,0,VALID,95.9472,VALID,0,VALID,23.8676,VALID,169,VALID,0,
2008-12-04, 02:05:04,VALID,1007.43,VALID,0,VALID,95.9472,VALID,0,VALID,23.8889,VALID,169,VALID,0,
2008-12-04, 02:06:04,VALID,1007.44,VALID,0,VALID,95.9396,VALID,0,VALID,23.8481,VALID,169,VALID,0,
2008-12-04, 02:07:04,VALID,1007.43,VALID,0,VALID,95.9625,VALID,0,VALID,23.8481,VALID,169,VALID,0,
2008-12-04, 02:08:04,VALID,1007.42,VALID,0,VALID,95.9701,VALID,0,VALID,23.8499,VALID,169,VALID,0,
2008-12-04, 02:09:04,VALID,1007.39,VALID,0,VALID,95.9625,VALID,0.105969,VALID,23.8109,VALID,169,VALID,0,
2008-12-04, 02:10:04,VALID,1007.4,VALID,0,VALID,95.9549,VALID,0,VALID,23.8304,VALID,169,VALID,0,
2008-12-04, 02:11:04,VALID,1007.37,VALID,0,VALID,95.9549,VALID,0,VALID,23.7896,VALID,169,VALID,0,
2008-12-04, 02:12:04,VALID,1007.38,VALID,0,VALID,95.9701,VALID,0,VALID,23.8091,VALID,169,VALID,0,
2008-12-04, 02:13:04,VALID,1007.38,VALID,0,VALID,95.9777,VALID,0,VALID,23.8091,VALID,169,VALID,0,
2008-12-04, 02:14:04,VALID,1007.42,VALID,0,VALID,95.9777,VALID,0,VALID,23.8694,VALID,169,VALID,0,
2008-12-04, 02:15:04,VALID,1007.41,VALID,0,VALID,95.9854,VALID,0,VALID,23.8676,VALID,169,VALID,0,
2008-12-04, 02:16:04,VALID,1007.41,VALID,0,VALID,95.9777,VALID,0,VALID,23.8889,VALID,169,VALID,0,
2008-12-04, 02:17:04,VALID,1007.43,VALID,0,VALID,95.9625,VALID,0,VALID,23.8694,VALID,169,VALID,0,
2008-12-04, 02:18:04,VALID,1007.44,VALID,0,VALID,95.9701,VALID,0,VALID,23.8286,VALID,169,VALID,0.284766,
2008-12-04, 02:19:04,VALID,1007.46,VALID,0,VALID,95.9549,VALID,0,VALID,23.8304,VALID,169,VALID,0.213672,
2008-12-04, 02:20:04,VALID,1007.43,VALID,0,VALID,95.9777,VALID,0,VALID,23.7914,VALID,169,VALID,0.268359,
2008-12-04, 02:21:04,VALID,1007.47,VALID,0,VALID,95.9549,VALID,0,VALID,23.7507,VALID,169,VALID,0.320703,
2008-12-04, 02:22:04,VALID,1007.46,VALID,0,VALID,95.9701,VALID,0,VALID,23.7507,VALID,169,VALID,0.286328,
2008-12-04, 02:23:04,VALID,1007.48,VALID,0,VALID,95.9549,VALID,0,VALID,23.7312,VALID,169,VALID,0.282422,
2008-12-04, 02:24:04,VALID,1007.47,VALID,0,VALID,95.9701,VALID,0,VALID,23.772,VALID,169,VALID,0.371875,
2008-12-04, 02:25:04,VALID,1007.49,VALID,0,VALID,95.993,VALID,0,VALID,23.7312,VALID,308,VALID,0.4,
2008-12-04, 02:26:04,VALID,1007.48,VALID,0,VALID,95.9777,VALID,0.105969,VALID,23.772,VALID,308,VALID,0.322266,
2008-12-04, 02:27:04,VALID,1007.48,VALID,0,VALID,95.993,VALID,0,VALID,23.7914,VALID,308,VALID,0.146875,
2008-12-04, 02:28:04,VALID,1007.47,VALID,0,VALID,96.0006,VALID,0,VALID,23.772,VALID,308,VALID,0.150391,
2008-12-04, 02:29:04,VALID,1007.48,VALID,0,VALID,95.993,VALID,0,VALID,23.7117,VALID,308,VALID,0.274609,
2008-12-04, 02:30:04,VALID,1007.49,VALID,0,VALID,96.0159,VALID,0.105969,VALID,23.6727,VALID,308,VALID,0.187891,
2008-12-04, 02:31:04,VALID,1007.54,VALID,0,VALID,96.0082,VALID,0,VALID,23.7135,VALID,308,VALID,0.163281,
2008-12-04, 02:32:04,VALID,1007.57,VALID,0,VALID,95.993,VALID,0,VALID,23.694,VALID,308,VALID,0.21875,
2008-12-04, 02:33:04,VALID,1007.57,VALID,0,VALID,95.9854,VALID,0,VALID,23.6922,VALID,308,VALID,0.210547,
2008-12-04, 02:34:04,VALID,1007.55,VALID,0,VALID,95.993,VALID,0,VALID,23.7135,VALID,308,VALID,0.0558594,
2008-12-04, 02:35:04,VALID,1007.59,VALID,0,VALID,96.0159,VALID,0,VALID,23.6922,VALID,308,VALID,0,
2008-12-04, 02:36:04,VALID,1007.58,VALID,0,VALID,96.0159,VALID,0,VALID,23.7135,VALID,308,VALID,0,
2008-12-04, 02:37:04,VALID,1007.54,VALID,0,VALID,95.993,VALID,0,VALID,23.7135,VALID,308,VALID,0,
2008-12-04, 02:38:04,VALID,1007.55,VALID,0,VALID,96.0082,VALID,0,VALID,23.733,VALID,308,VALID,0,
2008-12-04, 02:39:04,VALID,1007.53,VALID,0,VALID,96.0082,VALID,0,VALID,23.7312,VALID,308,VALID,0,
2008-12-04, 02:40:04,VALID,1007.47,VALID,0,VALID,96.0006,VALID,0,VALID,23.7896,VALID,308,VALID,0,
2008-12-04, 02:41:04,VALID,1007.5,VALID,0,VALID,96.0159,VALID,0,VALID,23.8109,VALID,308,VALID,0.0578125,
2008-12-04, 02:42:04,VALID,1007.49,VALID,0,VALID,96.0082,VALID,0,VALID,23.8091,VALID,308,VALID,0.366406,
2008-12-04, 02:43:04,VALID,1007.45,VALID,0,VALID,96.0006,VALID,0,VALID,23.8481,VALID,308,VALID,0.415625,
2008-12-04, 02:44:04,VALID,1007.43,VALID,0,VALID,96.0082,VALID,0,VALID,23.8481,VALID,308,VALID,0.166016,
2008-12-04, 02:45:04,VALID,1007.4,VALID,0,VALID,95.9777,VALID,0,VALID,23.8676,VALID,308,VALID,0.01875,
2008-12-04, 02:46:04,VALID,1007.39,VALID,0,VALID,95.993,VALID,0,VALID,23.8889,VALID,308,VALID,0,
2008-12-04, 02:47:04,VALID,1007.38,VALID,0,VALID,95.9777,VALID,0,VALID,23.8889,VALID,308,VALID,0,
2008-12-04, 02:48:04,VALID,1007.36,VALID,0,VALID,95.993,VALID,0,VALID,23.8676,VALID,308,VALID,0,
2008-12-04, 02:49:04,VALID,1007.36,VALID,0,VALID,96.0006,VALID,0,VALID,23.8676,VALID,308,VALID,0,
2008-12-04, 02:50:04,VALID,1007.35,VALID,0,VALID,95.9854,VALID,0,VALID,23.9084,VALID,308,VALID,0,
2008-12-04, 02:51:04,VALID,1007.34,VALID,0,VALID,96.0006,VALID,0,VALID,23.926,VALID,308,VALID,0.198047,
2008-12-04, 02:52:04,VALID,1007.32,VALID,0,VALID,95.993,VALID,0,VALID,23.965,VALID,308,VALID,0.0546875,
2008-12-04, 02:53:04,VALID,1007.32,VALID,0,VALID,95.9854,VALID,0,VALID,23.9845,VALID,307,VALID,0,
2008-12-04, 02:54:04,VALID,1007.32,VALID,0,VALID,95.9854,VALID,0.105969,VALID,24.004,VALID,307,VALID,0,
2008-12-04, 02:55:04,VALID,1007.3,VALID,0,VALID,95.9549,VALID,0.105969,VALID,24.004,VALID,307,VALID,0,
2008-12-04, 02:56:04,VALID,1007.31,VALID,0,VALID,95.9549,VALID,0,VALID,24.0235,VALID,307,VALID,0,
2008-12-04, 02:57:04,VALID,1007.29,VALID,0,VALID,95.9701,VALID,0,VALID,24.0429,VALID,307,VALID,0,
2008-12-04, 02:58:04,VALID,1007.28,VALID,0,VALID,95.9625,VALID,0,VALID,24.0643,VALID,307,VALID,0,
2008-12-04, 02:59:05,VALID,1007.29,VALID,0,VALID,95.9625,VALID,0,VALID,24.0429,VALID,307,VALID,0.314063,
2008-12-04, 03:00:05,VALID,1007.28,VALID,0,VALID,95.9854,VALID,0,VALID,24.004,VALID,307,VALID,0.350781,
2008-12-04, 03:01:05,VALID,1007.3,VALID,0,VALID,95.9854,VALID,0.105969,VALID,24.004,VALID,307,VALID,0.217187,
2008-12-04, 03:02:05,VALID,1007.27,VALID,0,VALID,95.9777,VALID,0,VALID,24.004,VALID,307,VALID,0.194922,
2008-12-04, 03:03:05,VALID,1007.26,VALID,0,VALID,95.9625,VALID,0,VALID,24.0253,VALID,307,VALID,0,
2008-12-04, 03:04:05,VALID,1007.24,VALID,0,VALID,95.9625,VALID,0,VALID,23.9845,VALID,307,VALID,0,
2008-12-04, 03:05:05,VALID,1007.23,VALID,0,VALID,95.9777,VALID,0,VALID,24.0058,VALID,307,VALID,0.0320312,
2008-12-04, 03:06:05,VALID,1007.24,VALID,0,VALID,95.9777,VALID,0,VALID,24.004,VALID,307,VALID,0.303906,
2008-12-04, 03:07:05,VALID,1007.22,VALID,0,VALID,95.9701,VALID,0,VALID,24.0253,VALID,215,VALID,0.497266,
2008-12-04, 03:08:05,VALID,1007.23,VALID,0,VALID,95.9549,VALID,0,VALID,23.9455,VALID,196,VALID,0.544922,
2008-12-04, 03:09:05,VALID,1007.25,VALID,0,VALID,95.9625,VALID,0,VALID,23.8676,VALID,196,VALID,0.544531,
2008-12-04, 03:10:05,VALID,1007.26,VALID,0,VALID,95.993,VALID,0,VALID,23.8694,VALID,191,VALID,0.522266,
2008-12-04, 03:11:05,VALID,1007.26,VALID,0,VALID,95.993,VALID,0,VALID,23.8481,VALID,191,VALID,0.483984,
2008-12-04, 03:12:05,VALID,1007.25,VALID,0,VALID,95.993,VALID,0.105969,VALID,23.8091,VALID,191,VALID,0.553906,
2008-12-04, 03:13:05,VALID,1007.27,VALID,0,VALID,96.0082,VALID,0,VALID,23.8286,VALID,191,VALID,0.476563,
2008-12-04, 03:14:05,VALID,1007.3,VALID,0,VALID,96.0006,VALID,0,VALID,23.8694,VALID,191,VALID,0.698828,
2008-12-04, 03:15:05,VALID,1007.27,VALID,0,VALID,96.0006,VALID,0,VALID,23.8889,VALID,190,VALID,0.569922,
2008-12-04, 03:16:05,VALID,1007.25,VALID,0,VALID,96.0159,VALID,0,VALID,23.8676,VALID,190,VALID,0.207813,
2008-12-04, 03:17:05,VALID,1007.25,VALID,0,VALID,96.0082,VALID,0,VALID,23.8871,VALID,190,VALID,0.127344,
2008-12-04, 03:18:05,VALID,1007.21,VALID,0,VALID,96.0006,VALID,0,VALID,23.9084,VALID,190,VALID,0.105469,
2008-12-04, 03:19:05,VALID,1007.2,VALID,0,VALID,96.0082,VALID,0,VALID,23.8871,VALID,190,VALID,0.119922,
2008-12-04, 03:20:05,VALID,1007.18,VALID,0,VALID,95.993,VALID,0,VALID,23.8871,VALID,190,VALID,0.186719,
2008-12-04, 03:21:05,VALID,1007.15,VALID,0,VALID,95.993,VALID,0,VALID,23.9278,VALID,180,VALID,0.257813,
2008-12-04, 03:22:05,VALID,1007.14,VALID,0,VALID,95.993,VALID,0,VALID,23.926,VALID,88,VALID,0.506641,
2008-12-04, 03:23:05,VALID,1007.14,VALID,0,VALID,95.993,VALID,0,VALID,23.9668,VALID,91,VALID,0.294531,
2008-12-04, 03:24:05,VALID,1007.15,VALID,0,VALID,96.0082,VALID,0,VALID,23.9668,VALID,91,VALID,0.316797,
2008-12-04, 03:25:05,VALID,1007.15,VALID,0,VALID,95.9854,VALID,0,VALID,23.9863,VALID,91,VALID,0.341797,
2008-12-04, 03:26:05,VALID,1007.14,VALID,0,VALID,96.0006,VALID,0,VALID,23.965,VALID,91,VALID,0,
2008-12-04, 03:27:05,VALID,1007.15,VALID,0,VALID,96.0006,VALID,0,VALID,23.9845,VALID,91,VALID,0,
2008-12-04, 03:28:05,VALID,1007.13,VALID,0,VALID,96.0006,VALID,0,VALID,24.0058,VALID,91,VALID,0.0171875,
2008-12-04, 03:29:05,VALID,1007.12,VALID,0,VALID,95.993,VALID,0,VALID,24.0058,VALID,91,VALID,0.219141,
2008-12-04, 03:30:05,VALID,1007.11,VALID,0,VALID,96.0006,VALID,0,VALID,24.0058,VALID,91,VALID,0.364453,
2008-12-04, 03:31:05,VALID,1007.1,VALID,0,VALID,95.9854,VALID,0,VALID,23.9863,VALID,119,VALID,0.463281,
2008-12-04, 03:32:05,VALID,1007.12,VALID,0,VALID,95.993,VALID,0,VALID,23.9863,VALID,120,VALID,0.370703,
2008-12-04, 03:33:05,VALID,1007.12,VALID,0,VALID,96.0159,VALID,0,VALID,23.9473,VALID,120,VALID,0.262109,
2008-12-04, 03:34:05,VALID,1007.12,VALID,0,VALID,95.993,VALID,0,VALID,23.9473,VALID,120,VALID,0.126172,
2008-12-04, 03:35:05,VALID,1007.16,VALID,0,VALID,96.0006,VALID,0,VALID,23.926,VALID,120,VALID,0.0816406,
2008-12-04, 03:36:05,VALID,1007.14,VALID,0,VALID,96.0082,VALID,0,VALID,23.9473,VALID,120,VALID,0,
2008-12-04, 03:37:05,VALID,1007.14,VALID,0,VALID,96.0082,VALID,0.105969,VALID,23.926,VALID,120,VALID,0.166797,
2008-12-04, 03:38:05,VALID,1007.15,VALID,0,VALID,96.0082,VALID,0,VALID,23.926,VALID,120,VALID,0.360938,
2008-12-04, 03:39:05,VALID,1007.15,VALID,0,VALID,96.0006,VALID,0,VALID,23.9863,VALID,119,VALID,0.454297,
2008-12-04, 03:40:05,VALID,1007.17,VALID,0,VALID,96.0006,VALID,0,VALID,23.965,VALID,118,VALID,0.362109,
2008-12-04, 03:41:05,VALID,1007.17,VALID,0,VALID,96.0082,VALID,0,VALID,23.926,VALID,118,VALID,0.102734,
2008-12-04, 03:42:05,VALID,1007.17,VALID,0,VALID,95.993,VALID,0,VALID,23.926,VALID,115,VALID,0.291016,
2008-12-04, 03:43:05,VALID,1007.21,VALID,0,VALID,96.0235,VALID,0,VALID,23.8889,VALID,112,VALID,0.225391,
2008-12-04, 03:44:05,VALID,1007.19,VALID,0,VALID,96.0082,VALID,0,VALID,23.8499,VALID,108,VALID,0.264844,
2008-12-04, 03:45:05,VALID,1007.18,VALID,0,VALID,96.0159,VALID,0,VALID,23.8091,VALID,91,VALID,0.29375,
2008-12-04, 03:46:05,VALID,1007.19,VALID,0,VALID,96.0082,VALID,0,VALID,23.7914,VALID,91,VALID,0.363672,
2008-12-04, 03:47:05,VALID,1007.18,VALID,0,VALID,96.0311,VALID,0,VALID,23.733,VALID,77,VALID,0.460547,
2008-12-04, 03:48:05,VALID,1007.19,VALID,0,VALID,96.0387,VALID,0,VALID,23.7135,VALID,77,VALID,0.426562,
2008-12-04, 03:49:05,VALID,1007.18,VALID,0,VALID,96.0387,VALID,0,VALID,23.6532,VALID,77,VALID,0.426562,
2008-12-04, 03:50:05,VALID,1007.19,VALID,0,VALID,96.0464,VALID,0,VALID,23.694,VALID,77,VALID,0.264453,
2008-12-04, 03:51:05,VALID,1007.22,VALID,0,VALID,96.054,VALID,0,VALID,23.6922,VALID,76,VALID,0.309375,